Airfield :







YOU CAN JOIN US ON...

 
LOGIN :

Register | Disclaimer

   EN    FR    IT 

 









Legend :    VFR   Marginal VFR   IFR   Intensive IFR   Very Intensive IFR
Visi :
Ceiling :
>= 8 km
>= 3000ft
5 to 8 km
1000 to 3000 ft
1500m to 5 km
500 to 1000 ft
800 to 1500m
200 to 500 ft
< 800m
< 200 ft
Symbols :   Thunderstorms  Fog  Heavy snow  Heavy precipitations  Wind > 20 kt






- Airport Elevation : 348 ft


KFIT - Fitchburg Municipal

CURRENT METAR :
  • 090952Z AUTO 00000KT 10SM M08/M10 A3000 RMK AO2 SLP165 I1001 T10781100 $

EXPIRED METARs :
  • 090852Z AUTO 33003KT 10SM M06/M08 A2998 RMK AO2 SLP159 60000 T10611083 51019 $
  • 090752Z AUTO 00000KT 10SM M06/M08 A2997 RMK AO2 SLP155 T10611078 $

TAF N/A
KZBW FIR / North America



MET'MAP, your aeronautical weather chart ! - Copyright ORBIFLY December 2007 - Disclaimer

ORBIFLY MET'MAP TEAM :

Programming & Development : Alexandra Zaïnal
Concept & original design : Baudouin d'Aumeries
Assistance for programming : Marc-Olivier Méhu
Technical & hardware support : Manuel Goepfert

Contact : metmap@orbifly.com




SOURCES & CREDITS :

   NOAA